This is the latest recevied weather packets stored in our database for station/object OE7BJT-13. If no packets are shown the sender has not sent any weather packets the latest 10 day(s).
| Time | Temp. | Humidity | Pressure | Rain* | Wind** | Luminosity | Snow |
|---|---|---|---|---|---|---|---|
| 1777460992 | 16.67° C | 47% | 1019 hPa | - | - | - | - |
| 1777460382 | 16.67° C | 49% | 1019 hPa | - | - | - | - |
| 1777459171 | 17.78° C | 49% | 1019 hPa | - | - | - | - |
| 1777458565 | 16.67° C | 52% | 1019 hPa | - | - | - | - |
| 1777457960 | 14.44° C | 54% | 1019 hPa | - | - | - | - |
| 1777457354 | 14.44° C | 55% | 1019 hPa | - | - | - | - |
| 1777456748 | 15° C | 56% | 1019 hPa | - | - | - | - |
| 1777456143 | 15° C | 55% | 1019 hPa | - | - | - | - |
| 1777455537 | 14.44° C | 55% | 1019 hPa | - | - | - | - |
| 1777454932 | 14.44° C | 56% | 1019 hPa | - | - | - | - |
| 1777454326 | 14.44° C | 59% | 1019 hPa | - | - | - | - |
| 1777453720 | 14.44° C | 57% | 1019 hPa | - | - | - | - |
| 1777452509 | 14.44° C | 57% | 1019 hPa | - | - | - | - |
| 1777451904 | 13.89° C | 58% | 1019 hPa | - | - | - | - |
| 1777450693 | 13.33° C | 62% | 1019 hPa | - | - | - | - |
| 1777450087 | 12.78° C | 64% | 1019 hPa | - | - | - | - |
| 1777449481 | 12.22° C | 66% | 1019 hPa | - | - | - | - |
| 1777448876 | 12.22° C | 65% | 1019 hPa | - | - | - | - |
| 1777448270 | 12.22° C | 66% | 1019 hPa | - | - | - | - |
| 1777447665 | 12.22° C | 67% | 1019 hPa | - | - | - | - |
| 1777447059 | 12.22° C | 72% | 1019 hPa | - | - | - | - |
| 1777445848 | 11.67° C | 76% | 1019 hPa | - | - | - | - |
| 1777445242 | 11.11° C | 79% | 1019 hPa | - | - | - | - |
| 1777444637 | 11.11° C | 82% | 1019 hPa | - | - | - | - |
| 1777444031 | 10.56° C | 83% | 1019 hPa | - | - | - | - |
* Rain since midnight (hover to see other rain measurements)
** Current wind speed in m/s (hover to see current wind gust speed)